QPF
0.07 0.07 0.06 0.04 0.04 0.06 0.07 0.04 0.03 0.03 0.04 0.04 0.04 0.05 0.06 0.05 0.06 0.06 0.05 0.03 0.03 0.04 0.03 0.03 0.03 0.03 0.03 0.04 0.06 0.10 0.12 0.11 0.08 0.05 0.04 0.05 0.05 0.04 0.05 0.07 0.08 0.07 0.06
0.07 0.08 0.07 0.06 0.05 0.05 0.05 0.03 0.03 0.04 0.04 0.05 0.05 0.04 0.03 0.05 0.06 0.06 0.06 0.06 0.05 0.04 0.03 0.02 0.02 0.03 0.03 0.04 0.06 0.12 0.19 0.16 0.09 0.07 0.05 0.05 0.05 0.04 0.04 0.04 0.05 0.05 0.04
0.07 0.08 0.09 0.07 0.06 0.06 0.05 0.04 0.04 0.05 0.06 0.06 0.05 0.04 0.05 0.05 0.07 0.11 0.06 0.07 0.07 0.04 0.02 0.02 0.02 0.02 0.02 0.04 0.06 0.08 0.10 0.11 0.08 0.07 0.05 0.05 0.06 0.04 0.04 0.04 0.04 0.04 0.04
0.05 0.09 0.08 0.05 0.06 0.08 0.07 0.06 0.05 0.05 0.06 0.07 0.06 0.06 0.06 0.07 0.07 0.07 0.07 0.07 0.08 0.05 0.03 0.02 0.02 0.03 0.03 0.03 0.05 0.06 0.08 0.08 0.08 0.05 0.04 0.04 0.05 0.04 0.04 0.06 0.08 0.08 0.07
0.04 0.07 0.05 0.04 0.05 0.06 0.07 0.05 0.05 0.04 0.05 0.07 0.05 0.06 0.05 0.06 0.09 0.07 0.08 0.07 0.09 0.08 0.08 0.05 0.03 0.03 0.04 0.05 0.06 0.07 0.08 0.07 0.07 0.06 0.05 0.05 0.05 0.04 0.03 0.03 0.06 0.10 0.09
0.04 0.04 0.04 0.03 0.04 0.05 0.06 0.06 0.04 0.05 0.05 0.06 0.04 0.05 0.05 0.06 0.07 0.07 0.06 0.06 0.08 0.08 0.08 0.07 0.06 0.04 0.03 0.05 0.06 0.10 0.12 0.10 0.08 0.06 0.05 0.05 0.04 0.03 0.02 0.02 0.03 0.08 0.10
0.03 0.04 0.03 0.05 0.04 0.04 0.03 0.03 0.04 0.04 0.05 0.04 0.05 0.07 0.07 0.05 0.05 0.04 0.05 0.07 0.07 0.06 0.07 0.06 0.06 0.07 0.05 0.05 0.05 0.08 0.14 0.14 0.09 0.05 0.04 0.04 0.04 0.04 0.03 0.03 0.02 0.02 0.04
0.02 0.03 0.04 0.04 0.03 0.04 0.04 0.03 0.04 0.05 0.06 0.05 0.06 0.08 0.09 0.09 0.07 0.04 0.04 0.04 0.05 0.04 0.04 0.04 0.05 0.06 0.07 0.07 0.07 0.07 0.09 0.15 0.12 0.08 0.06 0.05 0.03 0.03 0.03 0.03 0.03 0.02 0.03
0.03 0.03 0.03 0.03 0.04 0.04 0.05 0.06 0.05 0.05 0.07 0.06 0.06 0.07 0.09 0.10 0.08 0.07 0.05 0.03 0.03 0.03 0.04 0.04 0.04 0.04 0.05 0.07 0.08 0.07 0.05 0.10 0.13 0.09 0.08 0.06 0.04 0.03 0.03 0.04 0.04 0.04 0.03
0.05 0.04 0.03 0.03 0.05 0.04 0.05 0.06 0.07 0.07 0.08 0.07 0.06 0.05 0.05 0.06 0.09 0.08 0.05 0.04 0.03 0.03 0.03 0.02 0.03 0.05 0.04 0.05 0.06 0.05 0.04 0.06 0.10 0.09 0.08 0.06 0.06 0.04 0.03 0.05 0.05 0.05 0.06
0.04 0.03 0.03 0.04 0.06 0.04 0.04 0.04 0.07 0.07 0.07 0.06 0.07 0.06 0.05 0.07 0.07 0.10 0.09 0.07 0.04 0.03 0.02 0.02 0.03 0.03 0.03 0.03 0.04 0.04 0.03 0.03 0.04 0.05 0.08 0.07 0.05 0.04 0.03 0.03 0.04 0.05 0.07
0.04 0.03 0.04 0.05 0.05 0.04 0.05 0.05 0.05 0.07 0.08 0.08 0.07 0.05 0.07 0.06 0.07 0.09 0.07 0.06 0.04 0.03 0.03 0.02 0.02 0.03 0.03 0.02 0.03 0.03 0.02 0.02 0.02 0.02 0.03 0.06 0.05 0.04 0.03 0.03 0.03 0.04 0.05
0.04 0.03 0.03 0.04 0.04 0.04 0.04 0.05 0.06 0.07 0.08 0.08 0.07 0.06 0.06 0.05 0.04 0.06 0.06 0.04 0.04 0.04 0.03 0.02 0.01 0.02 0.03 0.03 0.04 0.05 0.03 0.02 0.01 0.01 0.00 0.02 0.04 0.04 0.02 0.02 0.03 0.04 0.04
0.03 0.03 0.02 0.02 0.03 0.04 0.04 0.06 0.06 0.06 0.07 0.05 0.06 0.07 0.05 0.04 0.03 0.04 0.06 0.06 0.06 0.06 0.05 0.03 0.01 0.02 0.03 0.06 0.08 0.09 0.06 0.04 0.02 0.01 0.00 0.00 0.01 0.02 0.02 0.02 0.02 0.02 0.03
0.02 0.03 0.03 0.03 0.04 0.04 0.03 0.04 0.05 0.04 0.05 0.04 0.04 0.05 0.05 0.03 0.03 0.03 0.05 0.05 0.06 0.06 0.05 0.04 0.03 0.02 0.03 0.05 0.06 0.05 0.05 0.04 0.03 0.02 0.02 0.01 0.01 0.01 0.01 0.01 0.01 0.01 0.02
0.04 0.04 0.04 0.06 0.05 0.03 0.03 0.03 0.04 0.03 0.03 0.04 0.04 0.04 0.04 0.03 0.03 0.03 0.05 0.05 0.06 0.07 0.06 0.04 0.03 0.02 0.02 0.02 0.03 0.02 0.03 0.03 0.03 0.02 0.02 0.02 0.02 0.02 0.01 0.02 0.01 0.01 0.01
0.06 0.05 0.05 0.07 0.06 0.04 0.03 0.03 0.03 0.04 0.04 0.04 0.03 0.04 0.04 0.05 0.06 0.06 0.06 0.06 0.07 0.07 0.06 0.04 0.04 0.03 0.04 0.04 0.04 0.04 0.04 0.04 0.03 0.02 0.02 0.02 0.02 0.03 0.02 0.02 0.02 0.01 0.01
0.06 0.06 0.07 0.06 0.06 0.06 0.05 0.04 0.03 0.04 0.04 0.05 0.06 0.07 0.06 0.07 0.08 0.08 0.08 0.08 0.08 0.08 0.08 0.06 0.06 0.05 0.05 0.04 0.04 0.04 0.03 0.03 0.03 0.03 0.03 0.02 0.02 0.03 0.03 0.04 0.03 0.03 0.02
0.05 0.05 0.06 0.07 0.06 0.06 0.06 0.05 0.04 0.03 0.03 0.05 0.06 0.08 0.09 0.08 0.09 0.10 0.09 0.09 0.07 0.06 0.08 0.07 0.06 0.07 0.05 0.04 0.06 0.05 0.03 0.04 0.03 0.03 0.03 0.03 0.03 0.03 0.03 0.04 0.05 0.04 0.03
0.06 0.06 0.07 0.07 0.08 0.08 0.06 0.05 0.05 0.04 0.04 0.05 0.05 0.06 0.07 0.08 0.08 0.08 0.07 0.08 0.09 0.08 0.09 0.07 0.07 0.06 0.06 0.05 0.07 0.06 0.05 0.05 0.04 0.04 0.05 0.04 0.03 0.02 0.02 0.03 0.03 0.03 0.03
0.06 0.07 0.07 0.08 0.09 0.07 0.05 0.04 0.04 0.04 0.04 0.05 0.05 0.05 0.07 0.07 0.07 0.07 0.06 0.07 0.09 0.08 0.07 0.06 0.07 0.08 0.06 0.06 0.05 0.05 0.06 0.06 0.05 0.03 0.04 0.03 0.03 0.02 0.01 0.02 0.03 0.04 0.03
0.05 0.06 0.06 0.07 0.06 0.05 0.03 0.03 0.03 0.04 0.05 0.06 0.06 0.06 0.07 0.07 0.06 0.05 0.05 0.05 0.06 0.06 0.05 0.06 0.08 0.07 0.06 0.05 0.06 0.05 0.05 0.06 0.04 0.03 0.03 0.03 0.03 0.03 0.03 0.02 0.03 0.05 0.05
0.07 0.06 0.07 0.06 0.06 0.04 0.02 0.02 0.02 0.03 0.03 0.05 0.06 0.07 0.07 0.05 0.04 0.03 0.03 0.03 0.03 0.03 0.02 0.04 0.05 0.05 0.06 0.06 0.07 0.06 0.07 0.06 0.06 0.05 0.06 0.04 0.05 0.05 0.05 0.05 0.07 0.08 0.08
0.05 0.05 0.06 0.07 0.06 0.04 0.02 0.02 0.02 0.02 0.02 0.03 0.03 0.03 0.04 0.04 0.04 0.04 0.04 0.03 0.03 0.03 0.02 0.02 0.03 0.03 0.04 0.06 0.06 0.05 0.07 0.06 0.05 0.05 0.06 0.05 0.05 0.06 0.06 0.07 0.07 0.07 0.08
0.04 0.04 0.05 0.06 0.05 0.04 0.03 0.03 0.02 0.02 0.03 0.04 0.04 0.03 0.03 0.03 0.02 0.03 0.03 0.03 0.04 0.03 0.02 0.02 0.02 0.02 0.03 0.03 0.04 0.04 0.05 0.05 0.04 0.04 0.05 0.06 0.07 0.08 0.08 0.06 0.05 0.04 0.05
0.05 0.05 0.05 0.04 0.04 0.04 0.04 0.04 0.03 0.03 0.03 0.04 0.05 0.04 0.03 0.03 0.02 0.02 0.02 0.02 0.02 0.03 0.04 0.04 0.03 0.02 0.01 0.02 0.02 0.03 0.04 0.04 0.05 0.04 0.05 0.07 0.06 0.07 0.06 0.04 0.03 0.03 0.03
MSLP
1000.11 999.54 999.00 998.44 997.79 996.96 995.92 994.66 993.25 991.80 990.52 989.57 989.11 989.25 989.98 991.24 992.88 994.70 996.49 998.11 999.46 1000.52 1001.35 1002.03 1002.65 1003.31 1004.02 1004.79 1005.56 1006.27 1006.86 1007.30 1007.58 1007.74 1007.84 1007.93 1008.06 1008.25 1008.51 1008.80 1009.11 1009.42 1009.71
1000.64 1000.09 999.58 999.10 998.61 998.04 997.37 996.57 995.69 994.80 994.03 993.49 993.30 993.50 994.10 995.03 996.18 997.42 998.62 999.68 1000.57 1001.28 1001.89 1002.45 1003.04 1003.70 1004.43 1005.20 1005.95 1006.62 1007.16 1007.54 1007.78 1007.93 1008.03 1008.14 1008.31 1008.54 1008.83 1009.15 1009.48 1009.78 1010.08
1001.13 1000.59 1000.12 999.70 999.33 998.96 998.56 998.13 997.68 997.25 996.92 996.74 996.78 997.06 997.57 998.24 999.01 999.79 1000.50 1001.11 1001.62 1002.05 1002.48 1002.94 1003.50 1004.16 1004.89 1005.65 1006.38 1007.00 1007.48 1007.82 1008.03 1008.16 1008.27 1008.41 1008.62 1008.89 1009.22 1009.57 1009.90 1010.21 1010.49
1001.55 1001.03 1000.58 1000.21 999.91 999.66 999.44 999.25 999.08 998.98 998.96 999.06 999.29 999.65 1000.12 1000.64 1001.15 1001.62 1002.00 1002.31 1002.56 1002.80 1003.10 1003.51 1004.04 1004.68 1005.40 1006.13 1006.81 1007.37 1007.80 1008.09 1008.27 1008.39 1008.52 1008.70 1008.95 1009.26 1009.61 1009.97 1010.32 1010.62 1010.89
1001.89 1001.41 1000.99 1000.65 1000.38 1000.18 1000.03 999.95 999.93 1000.00 1000.17 1000.43 1000.80 1001.24 1001.71 1002.17 1002.57 1002.89 1003.10 1003.25 1003.37 1003.52 1003.76 1004.12 1004.62 1005.23 1005.91 1006.59 1007.19 1007.69 1008.05 1008.30 1008.46 1008.59 1008.74 1008.95 1009.23 1009.57 1009.95 1010.32 1010.66 1010.95 1011.21
1002.21 1001.78 1001.41 1001.10 1000.84 1000.63 1000.48 1000.40 1000.41 1000.51 1000.74 1001.08 1001.51 1002.00 1002.51 1002.99 1003.38 1003.67 1003.85 1003.97 1004.06 1004.19 1004.41 1004.75 1005.21 1005.77 1006.37 1006.97 1007.49 1007.91 1008.21 1008.42 1008.57 1008.70 1008.88 1009.12 1009.43 1009.79 1010.17 1010.54 1010.87 1011.16 1011.40
1002.55 1002.21 1001.90 1001.63 1001.37 1001.14 1000.94 1000.80 1000.73 1000.78 1000.97 1001.29 1001.73 1002.25 1002.80 1003.32 1003.77 1004.11 1004.35 1004.52 1004.65 1004.80 1005.02 1005.33 1005.74 1006.22 1006.73 1007.23 1007.65 1007.99 1008.24 1008.42 1008.57 1008.72 1008.92 1009.19 1009.52 1009.89 1010.26 1010.62 1010.94 1011.21 1011.45
1002.98 1002.73 1002.51 1002.29 1002.06 1001.81 1001.54 1001.30 1001.13 1001.06 1001.15 1001.39 1001.78 1002.29 1002.86 1003.43 1003.95 1004.37 1004.70 1004.94 1005.13 1005.31 1005.53 1005.81 1006.15 1006.54 1006.95 1007.34 1007.68 1007.95 1008.16 1008.32 1008.47 1008.65 1008.87 1009.16 1009.49 1009.86 1010.22 1010.56 1010.86 1011.12 1011.35
1003.50 1003.36 1003.23 1003.09 1002.89 1002.63 1002.32 1001.99 1001.70 1001.51 1001.47 1001.60 1001.91 1002.37 1002.92 1003.51 1004.07 1004.56 1004.96 1005.26 1005.50 1005.70 1005.90 1006.13 1006.40 1006.70 1007.01 1007.31 1007.57 1007.80 1007.98 1008.15 1008.32 1008.52 1008.76 1009.05 1009.39 1009.73 1010.08 1010.39 1010.66 1010.91 1011.14
1004.10 1004.04 1004.00 1003.93 1003.78 1003.54 1003.21 1002.84 1002.46 1002.17 1002.01 1002.02 1002.23 1002.61 1003.11 1003.67 1004.23 1004.74 1005.16 1005.49 1005.73 1005.93 1006.10 1006.28 1006.48 1006.70 1006.94 1007.18 1007.40 1007.60 1007.79 1007.97 1008.16 1008.38 1008.64 1008.93 1009.24 1009.56 1009.86 1010.14 1010.39 1010.62 1010.86
1004.72 1004.71 1004.73 1004.72 1004.63 1004.42 1004.11 1003.72 1003.31 1002.94 1002.70 1002.62 1002.73 1003.01 1003.43 1003.92 1004.44 1004.91 1005.31 1005.61 1005.84 1006.01 1006.14 1006.28 1006.43 1006.60 1006.80 1007.01 1007.22 1007.43 1007.63 1007.84 1008.06 1008.29 1008.55 1008.82 1009.10 1009.37 1009.63 1009.87 1010.09 1010.30 1010.53
1005.28 1005.29 1005.33 1005.36 1005.31 1005.15 1004.87 1004.50 1004.10 1003.73 1003.44 1003.30 1003.33 1003.52 1003.83 1004.24 1004.66 1005.06 1005.39 1005.65 1005.83 1005.96 1006.07 1006.17 1006.30 1006.46 1006.65 1006.87 1007.10 1007.34 1007.58 1007.81 1008.05 1008.29 1008.53 1008.77 1009.00 1009.22 1009.43 1009.62 1009.80 1009.98 1010.19
1005.75 1005.73 1005.76 1005.79 1005.76 1005.64 1005.42 1005.11 1004.75 1004.41 1004.13 1003.96 1003.93 1004.04 1004.27 1004.56 1004.88 1005.18 1005.43 1005.62 1005.75 1005.84 1005.93 1006.03 1006.16 1006.34 1006.56 1006.81 1007.09 1007.36 1007.64 1007.90 1008.14 1008.37 1008.58 1008.78 1008.96 1009.13 1009.27 1009.41 1009.55 1009.70 1009.88
1006.11 1006.04 1006.03 1006.03 1006.00 1005.91 1005.75 1005.51 1005.22 1004.94 1004.70 1004.54 1004.49 1004.54 1004.68 1004.88 1005.09 1005.29 1005.45 1005.57 1005.66 1005.73 1005.81 1005.92 1006.08 1006.30 1006.56 1006.86 1007.17 1007.49 1007.79 1008.06 1008.30 1008.51 1008.69 1008.84 1008.97 1009.08 1009.18 1009.27 1009.37 1009.49 1009.62
1006.41 1006.27 1006.20 1006.16 1006.12 1006.05 1005.93 1005.77 1005.57 1005.36 1005.18 1005.06 1005.00 1005.02 1005.09 1005.20 1005.32 1005.43 1005.52 1005.58 1005.62 1005.68 1005.77 1005.90 1006.09 1006.34 1006.65 1006.98 1007.33 1007.67 1007.97 1008.25 1008.47 1008.65 1008.79 1008.91 1008.99 1009.07 1009.13 1009.19 1009.26 1009.35 1009.45
1006.70 1006.50 1006.37 1006.29 1006.23 1006.18 1006.10 1006.00 1005.88 1005.75 1005.63 1005.55 1005.50 1005.50 1005.53 1005.57 1005.61 1005.65 1005.67 1005.68 1005.70 1005.74 1005.83 1005.98 1006.20 1006.48 1006.80 1007.15 1007.50 1007.84 1008.13 1008.38 1008.58 1008.74 1008.85 1008.94 1009.00 1009.06 1009.11 1009.16 1009.22 1009.29 1009.37
1007.05 1006.81 1006.65 1006.53 1006.47 1006.42 1006.38 1006.32 1006.26 1006.19 1006.13 1006.08 1006.04 1006.02 1006.01 1006.01 1005.99 1005.97 1005.94 1005.92 1005.91 1005.94 1006.03 1006.18 1006.39 1006.66 1006.98 1007.31 1007.63 1007.93 1008.20 1008.41 1008.59 1008.72 1008.82 1008.90 1008.97 1009.03 1009.09 1009.16 1009.23 1009.30 1009.37
1007.46 1007.23 1007.06 1006.94 1006.87 1006.83 1006.81 1006.79 1006.76 1006.73 1006.70 1006.67 1006.63 1006.60 1006.56 1006.51 1006.46 1006.39 1006.33 1006.27 1006.24 1006.25 1006.32 1006.45 1006.63 1006.87 1007.13 1007.41 1007.69 1007.93 1008.15 1008.33 1008.47 1008.58 1008.68 1008.77 1008.87 1008.96 1009.06 1009.17 1009.26 1009.35 1009.43
1007.93 1007.73 1007.58 1007.47 1007.41 1007.38 1007.37 1007.36 1007.35 1007.33 1007.31 1007.27 1007.23 1007.18 1007.12 1007.05 1006.96 1006.87 1006.78 1006.70 1006.65 1006.64 1006.67 1006.75 1006.89 1007.06 1007.25 1007.46 1007.66 1007.84 1008.00 1008.13 1008.25 1008.36 1008.47 1008.59 1008.72 1008.85 1009.00 1009.15 1009.29 1009.41 1009.52
1008.39 1008.24 1008.12 1008.04 1007.99 1007.97 1007.96 1007.95 1007.93 1007.91 1007.87 1007.82 1007.77 1007.70 1007.62 1007.53 1007.44 1007.33 1007.23 1007.14 1007.08 1007.04 1007.03 1007.06 1007.13 1007.23 1007.34 1007.46 1007.58 1007.69 1007.79 1007.89 1007.98 1008.09 1008.22 1008.36 1008.53 1008.71 1008.90 1009.09 1009.27 1009.43 1009.57
1008.74 1008.65 1008.58 1008.52 1008.49 1008.46 1008.44 1008.41 1008.38 1008.33 1008.27 1008.21 1008.14 1008.06 1007.98 1007.89 1007.80 1007.71 1007.62 1007.53 1007.45 1007.40 1007.36 1007.34 1007.35 1007.37 1007.40 1007.44 1007.49 1007.53 1007.58 1007.65 1007.73 1007.83 1007.97 1008.13 1008.32 1008.53 1008.75 1008.97 1009.18 1009.37 1009.54
1008.92 1008.87 1008.83 1008.80 1008.77 1008.74 1008.71 1008.66 1008.59 1008.52 1008.44 1008.36 1008.28 1008.21 1008.13 1008.07 1008.01 1007.94 1007.87 1007.80 1007.74 1007.67 1007.62 1007.57 1007.52 1007.49 1007.45 1007.43 1007.41 1007.41 1007.42 1007.45 1007.51 1007.61 1007.74 1007.91 1008.10 1008.32 1008.55 1008.77 1009.00 1009.20 1009.40
1008.88 1008.87 1008.85 1008.83 1008.80 1008.76 1008.70 1008.63 1008.54 1008.44 1008.35 1008.26 1008.19 1008.13 1008.08 1008.05 1008.02 1008.00 1007.97 1007.93 1007.88 1007.83 1007.77 1007.69 1007.62 1007.55 1007.48 1007.41 1007.35 1007.31 1007.29 1007.30 1007.34 1007.42 1007.53 1007.68 1007.85 1008.05 1008.26 1008.47 1008.68 1008.89 1009.09
1008.65 1008.65 1008.64 1008.61 1008.58 1008.53 1008.45 1008.36 1008.25 1008.15 1008.05 1007.96 1007.90 1007.87 1007.85 1007.86 1007.87 1007.88 1007.89 1007.88 1007.86 1007.82 1007.76 1007.69 1007.60 1007.51 1007.41 1007.33 1007.25 1007.18 1007.14 1007.13 1007.15 1007.20 1007.28 1007.39 1007.53 1007.68 1007.85 1008.03 1008.22 1008.42 1008.63
1008.31 1008.29 1008.28 1008.25 1008.21 1008.15 1008.06 1007.96 1007.85 1007.74 1007.65 1007.58 1007.53 1007.51 1007.52 1007.55 1007.59 1007.63 1007.65 1007.66 1007.65 1007.61 1007.56 1007.48 1007.39 1007.29 1007.19 1007.10 1007.01 1006.94 1006.89 1006.85 1006.85 1006.87 1006.91 1006.98 1007.07 1007.17 1007.30 1007.44 1007.60 1007.78 1007.99
1007.92 1007.90 1007.88 1007.85 1007.81 1007.75 1007.67 1007.57 1007.47 1007.37 1007.28 1007.21 1007.17 1007.16 1007.17 1007.20 1007.23 1007.26 1007.27 1007.27 1007.24 1007.19 1007.12 1007.04 1006.94 1006.84 1006.74 1006.65 1006.56 1006.48 1006.42 1006.38 1006.35 1006.34 1006.35 1006.37 1006.42 1006.49 1006.57 1006.68 1006.82 1006.99 1007.20
Thickness
5792 5792 5792 5791 5791 5790 5789 5788 5787 5787 5786 5786 5785 5785 5783 5782 5780 5777 5773 5771 5769 5766 5764 5762 5760 5758 5756 5755 5754 5753 5751 5750 5747 5745 5743 5742 5740 5738 5737 5736 5734 5733 5732
5794 5793 5792 5792 5792 5792 5791 5790 5790 5788 5787 5787 5785 5785 5784 5783 5781 5779 5775 5772 5769 5768 5766 5763 5762 5760 5758 5757 5755 5753 5751 5749 5747 5745 5743 5741 5739 5737 5736 5735 5734 5732 5731
5795 5794 5793 5793 5793 5793 5793 5792 5791 5789 5788 5788 5786 5785 5784 5783 5782 5780 5777 5774 5771 5768 5767 5764 5763 5761 5760 5758 5756 5753 5751 5749 5746 5744 5742 5740 5739 5737 5735 5734 5733 5732 5731
5796 5795 5794 5793 5793 5793 5794 5792 5790 5788 5787 5786 5785 5785 5785 5783 5782 5781 5779 5776 5773 5771 5768 5765 5764 5762 5761 5758 5756 5753 5751 5748 5746 5744 5742 5740 5738 5736 5735 5733 5732 5731 5730
5796 5795 5794 5794 5794 5794 5793 5791 5788 5787 5784 5784 5784 5785 5784 5783 5783 5782 5779 5778 5775 5773 5770 5766 5764 5762 5760 5758 5756 5753 5751 5748 5746 5744 5742 5740 5738 5736 5735 5733 5732 5731 5729
5796 5795 5794 5794 5794 5792 5790 5789 5786 5786 5785 5784 5784 5783 5784 5784 5783 5781 5780 5778 5776 5774 5771 5769 5765 5762 5760 5758 5756 5754 5751 5749 5746 5744 5742 5740 5738 5736 5735 5733 5732 5730 5729
5795 5794 5793 5792 5791 5789 5788 5787 5785 5783 5783 5784 5780 5777 5780 5783 5782 5781 5780 5778 5776 5774 5772 5769 5766 5763 5760 5758 5756 5754 5752 5749 5746 5743 5741 5740 5738 5736 5735 5733 5732 5730 5729
5795 5795 5791 5791 5790 5788 5786 5785 5783 5780 5781 5783 5777 5770 5766 5769 5775 5781 5779 5776 5775 5774 5772 5770 5767 5765 5762 5759 5756 5753 5751 5749 5746 5744 5741 5739 5738 5736 5735 5733 5731 5730 5728
5794 5792 5791 5790 5789 5788 5785 5783 5782 5779 5776 5779 5780 5772 5762 5757 5764 5772 5776 5775 5774 5772 5771 5770 5768 5765 5763 5759 5756 5753 5750 5748 5746 5743 5741 5739 5737 5736 5734 5733 5731 5730 5728
5793 5791 5790 5788 5787 5786 5784 5783 5782 5780 5777 5773 5777 5778 5774 5769 5760 5757 5766 5771 5772 5770 5770 5770 5767 5765 5762 5759 5756 5753 5750 5748 5745 5743 5740 5738 5736 5735 5733 5732 5731 5729 5728
5791 5790 5788 5786 5785 5783 5782 5781 5780 5778 5777 5773 5772 5773 5772 5771 5767 5757 5753 5759 5765 5768 5769 5768 5767 5765 5762 5759 5756 5752 5750 5747 5744 5742 5739 5738 5736 5734 5732 5731 5730 5729 5727
5789 5788 5786 5785 5783 5781 5780 5779 5778 5776 5775 5773 5772 5772 5769 5765 5762 5759 5754 5754 5756 5762 5767 5767 5766 5764 5761 5758 5755 5752 5749 5746 5743 5741 5738 5736 5734 5732 5731 5730 5729 5728 5727
5785 5784 5784 5782 5780 5779 5779 5777 5775 5774 5773 5771 5770 5770 5770 5768 5767 5763 5757 5754 5754 5758 5762 5763 5764 5763 5760 5757 5753 5750 5746 5744 5742 5739 5737 5735 5733 5731 5729 5728 5727 5726 5725
5784 5784 5782 5780 5778 5777 5776 5775 5773 5772 5771 5770 5769 5768 5766 5766 5766 5763 5758 5753 5747 5749 5752 5755 5761 5760 5758 5755 5751 5748 5743 5741 5739 5737 5735 5733 5731 5730 5728 5727 5725 5724 5723
5783 5781 5779 5777 5775 5774 5772 5771 5769 5768 5768 5767 5766 5765 5763 5763 5763 5762 5760 5755 5746 5739 5740 5748 5752 5755 5755 5752 5748 5745 5742 5739 5737 5735 5733 5732 5730 5728 5727 5725 5724 5722 5721
5780 5778 5775 5773 5772 5770 5769 5767 5766 5765 5763 5763 5762 5760 5759 5759 5758 5757 5756 5754 5750 5742 5738 5744 5747 5750 5750 5749 5744 5743 5740 5737 5735 5733 5732 5730 5729 5727 5725 5723 5722 5721 5720
5776 5774 5772 5770 5768 5766 5765 5763 5762 5761 5760 5758 5758 5757 5755 5754 5752 5751 5750 5749 5746 5743 5736 5739 5743 5745 5744 5742 5740 5739 5737 5735 5733 5731 5730 5729 5727 5726 5724 5722 5720 5719 5718
5773 5771 5769 5766 5764 5763 5762 5760 5757 5757 5755 5754 5753 5752 5750 5750 5747 5746 5744 5743 5741 5741 5736 5731 5734 5736 5737 5738 5736 5735 5735 5734 5732 5730 5729 5727 5726 5724 5722 5721 5719 5718 5716
5770 5768 5765 5762 5760 5759 5757 5756 5755 5753 5752 5751 5749 5747 5746 5744 5741 5740 5739 5737 5737 5737 5734 5730 5730 5732 5733 5733 5731 5730 5731 5730 5730 5728 5727 5725 5723 5722 5720 5719 5717 5716 5714
5767 5764 5761 5759 5757 5755 5753 5751 5750 5749 5747 5746 5746 5744 5742 5740 5737 5735 5734 5732 5731 5729 5728 5726 5725 5725 5726 5727 5724 5722 5721 5723 5724 5725 5724 5722 5720 5719 5717 5716 5715 5713 5712
5764 5761 5757 5755 5753 5751 5749 5746 5745 5745 5742 5740 5740 5739 5738 5736 5733 5731 5730 5727 5725 5722 5721 5719 5717 5717 5717 5717 5715 5716 5714 5716 5718 5720 5718 5718 5716 5714 5713 5712 5711 5710 5709
5760 5756 5753 5750 5748 5747 5744 5741 5739 5738 5736 5734 5733 5733 5732 5730 5728 5726 5725 5723 5720 5716 5714 5712 5711 5709 5709 5711 5711 5709 5707 5706 5706 5713 5711 5712 5714 5712 5712 5711 5710 5708 5706
5754 5751 5748 5745 5742 5739 5737 5735 5733 5732 5731 5729 5727 5726 5726 5726 5723 5721 5719 5717 5715 5713 5710 5708 5705 5705 5705 5705 5703 5701 5700 5699 5699 5704 5704 5703 5708 5707 5709 5709 5707 5705 5702
5748 5744 5742 5740 5737 5734 5731 5729 5727 5726 5725 5724 5722 5721 5718 5717 5716 5713 5712 5710 5709 5709 5707 5704 5703 5703 5702 5701 5699 5697 5696 5695 5697 5699 5699 5694 5699 5700 5704 5702 5702 5700 5697
5742 5739 5736 5734 5731 5727 5725 5723 5719 5719 5718 5717 5716 5715 5713 5710 5707 5705 5703 5701 5701 5701 5702 5701 5699 5698 5696 5695 5693 5690 5688 5685 5685 5689 5693 5689 5690 5692 5693 5694 5694 5693 5691
5735 5733 5730 5728 5725 5722 5719 5716 5713 5713 5711 5710 5709 5708 5706 5703 5700 5697 5695 5693 5691 5692 5693 5694 5693 5691 5690 5689 5687 5684 5681 5677 5677 5679 5685 5683 5682 5682 5681 5686 5686 5684 5683